GW0751 Weather Reports


Display with metric or nautical units.
time (UTC)temp
F
wind
direction
speed
MPH
gust
MPH
rain 1hr
in
rain 24hr
in
rain mn
in
humidity
%
barometer
mb
20260903084225 58 248 0.0 0.0 0.00 0.00 0.00 94 1015.3
20260903083705 58 180 0.0 0.0 0.00 0.00 0.00 94 1015.3
20260903082630 58 225 0.0 0.0 0.00 0.00 0.00 94 1015.3
20260903082110 58 270 0.0 0.0 0.00 0.00 0.00 94 1015.3
20260903081550 58 225 0.0 0.0 0.00 0.00 0.00 94 1015.5
20260903081030 57 203 0.0 0.0 0.00 0.00 0.00 94 1015.5
20260903080515 57 225 0.0 0.0 0.00 0.00 0.00 94 1015.5
20260903075435 57 248 0.0 0.0 0.00 0.00 0.00 94 1015.5
20260903074920 57 270 0.0 0.0 0.00 0.00 0.00 94 1015.5
20260903074400 57 225 0.0 0.0 0.00 0.00 0.00 94 1015.5
20260903073320 58 293 0.0 0.0 0.00 0.00 0.00 94 1015.5
20260903072245 58 203 0.0 0.0 0.00 0.00 0.00 94 1015.5
20260903071745 58 315 0.0 0.0 0.00 0.00 0.00 94 1015.6
20260903071225 58 180 0.0 0.0 0.00 0.00 0.00 94 1015.6
20260903070705 58 180 0.0 0.0 0.00 0.00 0.00 94 1015.6
20260903070205 58 270 0.0 0.0 0.00 0.00 0.00 94 1015.6
20260903065705 58 248 0.0 0.0 0.00 0.00 0.66 94 1015.6
20260903065145 58 225 0.0 0.0 0.00 0.00 0.66 94 1015.7
20260903064630 58 23 0.0 0.0 0.00 0.00 0.66 94 1015.7
20260903063550 58 270 0.0 0.0 0.00 0.00 0.66 94 1015.8
20260903063030 58 113 0.0 0.0 0.00 0.00 0.66 94 1015.8
20260903062515 57 248 0.0 0.0 0.00 0.00 0.66 94 1015.8
20260903061955 57 225 0.0 0.0 0.00 0.00 0.66 94 1015.8
20260903061435 57 225 0.0 0.0 0.00 0.00 0.66 93 1016.0
20260903060915 56 270 0.0 0.0 0.00 0.00 0.66 92 1016.0
20260903060400 56 248 0.0 0.0 0.00 0.00 0.66 92 1015.8
20260903055840 56 270 0.0 0.0 0.00 0.00 0.66 92 1015.8
20260903055320 55 225 0.0 0.0 0.00 0.00 0.66 92 1015.8
20260903054245 56 203 0.0 0.0 0.00 0.00 0.66 92 1015.8
20260903053725 56 225 0.0 0.0 0.00 0.00 0.66 92 1016.0
20260903052130 57 180 0.0 0.0 0.00 0.00 0.66 92 1016.0
20260903051610 57 180 0.0 0.0 0.00 0.00 0.66 92 1016.0
20260903051050 57 225 1.0 1.0 0.00 0.00 0.66 92 1016.0
20260903050530 57 203 0.0 0.0 0.00 0.00 0.66 91 1016.2
20260903050015 57 225 0.0 0.0 0.00 0.00 0.66 91 1016.2
20260903045455 57 203 0.0 0.0 0.00 0.00 0.66 91 1016.2
20260903044935 57 248 0.0 0.0 0.00 0.00 0.66 91 1016.2
20260903044415 57 270 0.0 0.0 0.00 0.00 0.66 91 1016.2
20260903043915 57 270 0.0 0.0 0.00 0.00 0.66 91 1016.2
20260903043400 57 270 0.0 0.0 0.00 0.00 0.66 90 1016.2
20260903042840 58 203 0.0 0.0 0.00 0.00 0.66 90 1016.2
20260903042320 57 23 0.0 0.0 0.00 0.00 0.66 90 1016.2
20260903041800 57 135 0.0 0.0 0.00 0.00 0.66 90 1016.2
20260903041245 57 225 0.0 0.0 0.00 0.00 0.66 90 1016.2
20260903040205 58 135 0.0 0.0 0.00 0.00 0.66 89 1015.8
20260903035130 58 225 0.0 0.0 0.00 0.00 0.66 88 1015.8
20260903034610 58 203 0.0 0.0 0.00 0.00 0.66 88 1015.8
20260903034051 58 180 0.0 0.0 0.00 0.00 0.66 88 1015.8
20260903033530 58 225 0.0 0.0 0.00 0.00 0.66 87 1015.8
20260903033015 58 203 0.0 0.0 0.00 0.00 0.66 87 1015.6
20260903032455 59 248 0.0 0.0 0.00 0.00 0.66 86 1015.6
20260903031935 59 225 0.0 0.0 0.00 0.00 0.66 86 1015.6
20260903031416 59 135 0.0 0.0 0.00 0.00 0.66 85 1015.5
20260903030900 59 225 0.0 0.0 0.00 0.00 0.66 85 1015.5
20260903030340 59 203 0.0 0.0 0.00 0.00 0.66 85 1015.5
20260903025840 60 225 1.0 1.0 0.00 0.00 0.66 85 1015.5
20260903025321 60 180 0.0 0.0 0.00 0.00 0.66 84 1015.7
20260903024800 60 225 0.0 0.0 0.00 0.00 0.66 84 1015.7
20260903024245 60 225 0.0 0.0 0.00 0.00 0.66 84 1015.7
20260903023725 60 248 1.0 1.0 0.00 0.00 0.66 83 1015.6
20260903023205 60 248 1.0 1.0 0.00 0.00 0.66 83 1015.6
20260903022645 61 248 3.0 3.0 0.00 0.00 0.66 82 1015.7
20260903022130 61 225 0.0 0.0 0.00 0.00 0.66 81 1015.7
20260903021050 61 293 2.0 2.0 0.00 0.00 0.66 80 1015.7
20260903020015 62 225 3.0 3.0 0.00 0.00 0.66 79 1015.7
20260903015455 62 203 4.0 4.0 0.00 0.00 0.66 79 1015.7
20260903014935 62 113 2.0 2.0 0.00 0.00 0.66 78 1015.8
20260903014415 62 158 4.0 4.0 0.00 0.00 0.66 78 1015.8
20260903013900 63 270 3.0 3.0 0.00 0.00 0.66 77 1015.8
20260903013340 63 248 5.0 5.0 0.00 0.00 0.66 77 1015.8
20260903012820 63 225 5.0 5.0 0.00 0.00 0.66 76 1015.8
20260903012300 64 270 4.0 4.0 0.00 0.00 0.66 75 1015.8
20260903011800 64 270 3.0 3.0 0.00 0.00 0.66 74 1016.0
20260903011245 65 203 5.0 5.0 0.00 0.00 0.66 73 1016.0
20260903010741 65 293 4.0 4.0 0.00 0.00 0.66 72 1016.0
20260903010205 66 270 5.0 5.0 0.00 0.00 0.66 71 1016.0
20260903005645 67 225 6.0 6.0 0.00 0.00 0.66 68 1016.0
20260903005125 68 203 4.0 4.0 0.00 0.00 0.66 68 1016.0
20260903004611 69 180 5.0 5.0 0.00 0.00 0.66 66 1016.0
20260903004051 71 225 4.0 4.0 0.00 0.00 0.66 64 1015.8
20260903003530 71 203 5.0 5.0 0.00 0.00 0.66 64 1015.8
20260903003010 71 225 5.0 5.0 0.00 0.00 0.66 64 1015.8
20260903002455 72 248 5.0 5.0 0.00 0.00 0.66 63 1015.8
20260903001935 73 248 5.0 5.0 0.00 0.00 0.66 62 1015.8
20260903000855 73 203 5.0 5.0 0.00 0.00 0.66 62 1016.0
20260903000335 74 270 5.0 5.0 0.00 0.00 0.66 61 1016.0
20260902235300 74 203 5.0 5.0 0.00 0.00 0.66 62 1016.0
20260902234740 75 203 5.0 5.0 0.00 0.00 0.66 59 1016.0
20260902234220 76 203 5.0 5.0 0.00 0.00 0.66 58 1016.0
20260902233705 77 225 3.0 3.0 0.00 0.00 0.66 58 1016.0
20260902233146 77 180 4.0 4.0 0.00 0.00 0.66 58 1016.0
20260902232625 78 225 6.0 6.0 0.00 0.00 0.66 57 1016.2
20260902232105 77 203 3.0 3.0 0.00 0.00 0.66 59 1016.2
20260902231550 77 203 4.0 4.0 0.00 0.00 0.66 59 1016.4
20260902231030 77 90 4.0 4.0 0.00 0.00 0.66 59 1016.4
20260902225936 75 248 4.0 4.0 0.00 0.00 0.66 61 1016.5
20260902225415 74 203 3.0 3.0 0.00 0.00 0.66 62 1016.5
20260902224855 74 270 4.0 4.0 0.00 0.00 0.66 62 1016.5
20260902224335 75 225 4.0 4.0 0.00 0.00 0.66 61 1016.5
20260902222546 76 225 4.0 4.0 0.00 0.00 0.66 60 1016.5
20260902221300 78 203 5.0 5.0 0.00 0.00 0.66 58 1016.5
20260902220740 76 203 4.0 4.0 0.00 0.00 0.66 61 1016.5
20260902220221 77 203 5.0 5.0 0.00 0.00 0.66 59 1016.5
20260902215646 77 270 5.0 5.0 0.00 0.00 0.66 61 1016.5
20260902214545 74 203 5.0 5.0 0.00 0.00 0.66 62 1016.7
20260902213431 75 248 4.0 4.0 0.00 0.00 0.66 62 1016.7
20260902212916 74 225 4.0 4.0 0.00 0.00 0.66 62 1016.7
20260902212356 74 203 4.0 4.0 0.00 0.00 0.66 62 1016.7
20260902211836 75 203 3.0 3.0 0.00 0.00 0.66 62 1016.7
20260902211316 75 225 3.0 3.0 0.00 0.00 0.66 63 1016.7
20260902210816 74 248 5.0 5.0 0.00 0.00 0.66 63 1016.7
20260902205740 73 203 4.0 4.0 0.00 0.00 0.66 65 1016.7
20260902205220 73 270 6.0 6.0 0.00 0.00 0.66 64 1016.9
20260902204701 74 270 3.0 3.0 0.00 0.00 0.66 64 1016.9
20260902204045 75 270 4.0 4.0 0.00 0.00 0.66 62 1016.9
20260902203531 75 293 3.0 3.0 0.00 0.00 0.66 61 1016.9
20260902203025 75 225 3.0 3.0 0.00 0.00 0.66 64 1016.9
20260902202511 75 293 2.0 2.0 0.00 0.00 0.66 65 1017.0
20260902201951 74 248 3.0 3.0 0.00 0.00 0.66 65 1017.0
20260902201431 74 180 3.0 3.0 0.00 0.00 0.66 65 1017.0
20260902200911 74 225 3.0 3.0 0.00 0.00 0.66 66 1017.0
20260902195836 74 225 4.0 4.0 0.00 0.00 0.66 66 1017.2
20260902195315 73 225 3.0 3.0 0.00 0.00 0.66 68 1017.3
20260902194816 73 180 3.0 3.0 0.00 0.00 0.66 66 1017.3
20260902194256 72 293 3.0 3.0 0.00 0.00 0.66 68 1017.3
20260902193741 72 180 3.0 3.0 0.00 0.00 0.66 67 1017.3
20260902193220 71 293 3.0 3.0 0.00 0.00 0.66 68 1017.3
20260902192701 71 248 3.0 3.0 0.00 0.00 0.66 69 1017.2
20260902192141 71 248 4.0 4.0 0.00 0.00 0.66 68 1017.2
20260902191642 71 225 3.0 3.0 0.00 0.00 0.66 69 1017.3
20260902191126 69 90 4.0 4.0 0.00 0.00 0.66 71 1017.3
20260902190606 69 203 3.0 3.0 0.00 0.00 0.66 72 1017.4
20260902190046 69 180 2.0 2.0 0.00 0.00 0.66 72 1017.4
20260902185526 69 203 3.0 3.0 0.00 0.00 0.66 71 1017.4
20260902185011 70 270 4.0 4.0 0.00 0.00 0.66 70 1017.4
20260902184451 73 248 4.0 4.0 0.00 0.00 0.66 67 1017.4
20260902183931 73 225 3.0 3.0 0.00 0.00 0.66 67 1017.3
20260902183411 73 180 4.0 4.0 0.00 0.00 0.66 68 1017.3
20260902182856 72 203 3.0 3.0 0.00 0.00 0.66 71 1017.2
20260902182336 69 180 5.0 5.0 0.01 0.00 0.66 72 1017.2
20260902181816 70 270 4.0 4.0 0.01 0.00 0.66 71 1017.1
20260902181256 70 270 4.0 4.0 0.01 0.00 0.66 72 1017.1
20260902180741 71 270 4.0 4.0 0.01 0.00 0.66 72 1017.1
20260902180221 72 248 6.0 6.0 0.01 0.00 0.66 71 1017.0
20260902175140 69 180 3.0 3.0 0.01 0.00 0.66 77 1016.9
20260902174626 68 293 4.0 4.0 0.01 0.00 0.66 77 1016.9
20260902174121 68 225 2.0 2.0 0.01 0.00 0.66 78 1016.7
20260902173606 68 225 3.0 3.0 0.01 0.00 0.66 79 1016.7
20260902173046 67 113 0.0 0.0 0.01 0.00 0.66 84 1016.7
20260902172526 66 158 0.0 0.0 0.01 0.00 0.65 83 1016.7
20260902170911 64 180 3.0 3.0 0.01 0.00 0.65 87 1016.5
20260902170351 63 248 1.0 1.0 0.01 0.00 0.65 89 1016.5
20260902165836 63 248 3.0 3.0 0.01 0.00 0.65 90 1016.5
20260902164756 62 203 1.0 1.0 0.01 0.00 0.65 90 1016.2
20260902164237 63 225 0.0 0.0 0.01 0.00 0.65 92 1016.2
20260902163721 62 203 0.0 0.0 0.01 0.00 0.65 93 1016.2
20260902162641 62 293 2.0 2.0 0.00 0.00 0.64 94 1016.2
20260902161607 61 203 4.0 4.0 0.00 0.00 0.64 95 1016.0
20260902160526 61 270 1.0 1.0 0.00 0.00 0.64 96 1016.0
20260902160009 61 248 0.0 0.0 0.00 0.00 0.64 96 1016.0
20260902155451 60 270 0.0 0.0 0.00 0.00 0.64 96 1016.0
20260902154931 60 248 0.0 0.0 0.00 0.00 0.64 96 1016.2
20260902154411 60 270 2.0 2.0 0.01 0.00 0.64 96 1016.2
20260902153336 60 248 0.0 0.0 0.02 0.00 0.64 96 1016.0
20260902152816 60 158 0.0 0.0 0.02 0.00 0.64 96 1016.0
20260902152256 60 180 0.0 0.0 0.02 0.00 0.64 96 1016.0
20260902151221 59 248 0.0 0.0 0.02 0.00 0.64 96 1015.8
20260902150701 59 248 2.0 2.0 0.02 0.00 0.64 96 1015.8
20260902145621 59 248 0.0 0.0 0.03 0.00 0.64 96 1016.0
20260902144546 59 248 0.0 0.0 0.05 0.00 0.63 96 1015.8
20260902144026 59 180 1.0 1.0 0.07 0.00 0.63 96 1015.7
20260902142431 59 203 0.0 0.0 0.10 0.00 0.62 96 1015.5
20260902141911 59 293 2.0 2.0 0.14 0.00 0.62 96 1015.5
20260902141351 59 270 0.0 0.0 0.15 0.00 0.62 96 1015.2
20260902140316 59 203 0.0 0.0 0.19 0.00 0.62 96 1015.2
20260902135756 59 248 0.0 0.0 0.19 0.00 0.61 96 1015.2
20260902135236 59 225 0.0 0.0 0.19 0.00 0.59 96 1015.1
20260902134721 59 135 0.0 0.0 0.22 0.00 0.58 96 1015.1
20260902134201 59 158 0.0 0.0 0.21 0.00 0.56 96 1015.2
20260902133641 58 113 0.0 0.0 0.19 0.00 0.54 95 1015.2
20260902133121 58 90 0.0 0.0 0.21 0.00 0.54 95 1015.2
20260902132606 58 45 0.0 0.0 0.23 0.00 0.53 95 1015.1
20260902132046 58 45 0.0 0.0 0.22 0.00 0.48 95 1015.1
20260902131046 58 270 0.0 0.0 0.24 0.00 0.46 95 1015.0
20260902130526 58 90 0.0 0.0 0.25 0.00 0.44 95 1014.8
20260902130006 58 293 0.0 0.0 0.26 0.00 0.42 95 1014.8
20260902125451 58 68 0.0 0.0 0.28 0.00 0.40 95 1014.8
20260902124931 58 90 0.0 0.0 0.27 0.00 0.37 95 1014.8
20260902124411 58 203 0.0 0.0 0.26 0.00 0.36 95 1014.8
20260902123851 58 338 0.0 0.0 0.26 0.00 0.35 95 1014.8
20260902123336 59 90 0.0 0.0 0.24 0.00 0.33 95 1014.8
20260902122816 58 135 0.0 0.0 0.22 0.00 0.30 95 1014.9
20260902122256 58 270 0.0 0.0 0.20 0.00 0.28 95 1014.9
20260902121736 58 113 0.0 0.0 0.17 0.00 0.25 95 1014.9
20260902121221 58 45 0.0 0.0 0.14 0.00 0.22 95 1014.9
20260902120201 58 23 0.0 0.0 0.10 0.00 0.16 95 1014.9
20260902115641 58 293 0.0 0.0 0.08 0.00 0.14 95 1014.9
20260902115121 58 113 0.0 0.0 0.05 0.00 0.10 95 1014.8
20260902114601 58 68 0.0 0.0 0.06 0.00 0.10 95 1014.8
20260902114046 58 45 0.0 0.0 0.05 0.00 0.09 95 1015.0
20260902113546 58 180 0.0 0.0 0.06 0.00 0.09 95 1015.0
20260902113026 58 90 0.0 0.0 0.05 0.00 0.08 95 1015.0
20260902111947 58 180 0.0 0.0 0.05 0.00 0.08 95 1015.0
20260902111431 58 158 0.0 0.0 0.06 0.00 0.08 95 1014.8
20260902110911 58 135 0.0 0.0 0.05 0.00 0.07 95 1014.8
20260902110351 58 113 0.0 0.0 0.04 0.00 0.06 95 1014.9
20260902105832 58 113 2.0 2.0 0.04 0.00 0.06 95 1014.9
20260902104756 58 45 0.0 0.0 0.02 0.00 0.04 95 1015.0
20260902104236 58 45 2.0 2.0 0.04 0.00 0.04 95 1015.0
20260902103716 58 23 3.0 3.0 0.03 0.00 0.03 94 1015.1
20260902102641 59 90 0.0 0.0 0.03 0.00 0.03 94 1015.2
20260902102121 59 113 0.0 0.0 0.03 0.00 0.03 94 1015.2
20260902101602 59 113 0.0 0.0 0.02 0.00 0.02 94 1015.2
20260902101046 59 270 0.0 0.0 0.02 0.00 0.02 94 1015.2
20260902100526 59 90 0.0 0.0 0.02 0.00 0.02 94 1015.3
20260902100007 59 90 0.0 0.0 0.02 0.00 0.02 94 1015.3
20260902095447 59 90 0.0 0.0 0.02 0.00 0.02 93 1015.3
20260902094931 59 113 0.0 0.0 0.02 0.00 0.02 93 1015.3
20260902094412 59 135 0.0 0.0 0.00 0.00 0.00 93 1015.3
20260902093332 59 158 0.0 0.0 0.00 0.00 0.00 93 1015.3
20260902092816 59 225 0.0 0.0 0.00 0.00 0.00 93 1015.5
20260902092256 59 225 0.0 0.0 0.00 0.00 0.00 93 1015.5
20260902091756 59 270 0.0 0.0 0.00 0.00 0.00 93 1015.5
20260902091237 59 203 0.0 0.0 0.00 0.00 0.00 93 1015.5
20260902090716 59 158 0.0 0.0 0.00 0.00 0.00 93 1015.5
20260902090201 59 315 0.0 0.0 0.00 0.00 0.00 93 1015.6
20260902085642 59 248 1.0 1.0 0.00 0.00 0.00 93 1015.6
20260902085121 59 248 3.0 3.0 0.00 0.00 0.00 93 1015.7
20260902084601 59 270 0.0 0.0 0.00 0.00 0.00 93 1015.7